sat.trackr.live / text

‹ back to catalog

TOMORROW-S5

NORAD 63234 · 2025-052AA

PAYLOAD ACTIVE UNKNOWN

§ Identity

Operator
Country
US
Launch date
2025-03-15
Launch site
AFWTR
Launch vehicle
Mass (kg)
RCS (m²)

External: N2YO · Heavens-Above · Gunter

§ Orbital elements

Epoch: 2026-05-25T03:12:59.881824Z

Period
94.60 min
Inclination
97.4017°
Eccentricity
0.0005341
Mean motion
15.22194697 rev/d
Perigee alt
495.5 km
Apogee alt
502.9 km
Semi-major
6,877.4 km
B*
1.7087e-4
RAAN
38.1830°
Arg perigee
221.2048°
Mean anomaly
138.8785°
Rev number
6,633

§ Raw data

TOMORROW-S51 63234U 25052AA  26145.13402641  .00003855  00000+0  17087-3 0  99972 63234  97.4017  38.1830 0005341 221.2048 138.8785 15.22194697 66337

JSON: /api/v1/satellites/63234 · /tle

For live sub-satellite position, see the globe view (requires WebGL).

§ Visibility from observer

Set your observer location to see the next 7 days of passes ≥ 10°. The values pass through the URL so the page stays shareable.

No JS? Fill the form by hand. The geolocation button needs JavaScript.